AZU1383 SBGR-SBRF

Flight info

Callsign AZU1383
Flight time 3h 13m
Altitude 37000
Route VUMEV UZ14 EGAPO/N0441F390 UZ14 AKPAS DCT ANBEX
Aircraft A20N/M-SDE2E3FGHIRWXY/LB1

Departure

Time 2026-05-06 01:25
Airport São Paulo/Guarulhos–Governor André Franco Montoro International Airport (SBGR)

Arrival

Time 2026-05-06 04:38
Airport Recife/Guararapes - Gilberto Freyre International Airport (SBRF)
Time Latitude Longitude Altitude Speed Heading
2026-05-05 23:20 -23.42753 -46.47283 2458 ft 0 kts 254°
2026-05-06 01:05 -23.42751 -46.47276 2458 ft 1 kts 249°
2026-05-06 01:05 -23.42748 -46.47267 2456 ft 1 kts 240°
2026-05-06 01:06 -23.42743 -46.47260 2458 ft 1 kts 232°
2026-05-06 01:06 -23.42738 -46.47253 2458 ft 1 kts 224°
2026-05-06 01:06 -23.42729 -46.47244 2455 ft 2 kts 216°
2026-05-06 01:06 -23.42716 -46.47235 2458 ft 2 kts 206°
2026-05-06 01:07 -23.42703 -46.47229 2457 ft 2 kts 197°
2026-05-06 01:07 -23.42690 -46.47226 2460 ft 0 kts 187°
2026-05-06 01:16 -23.42700 -46.47221 2456 ft 4 kts 156°
2026-05-06 01:16 -23.42725 -46.47178 2453 ft 11 kts 132°
2026-05-06 01:16 -23.42808 -46.47128 2460 ft 7 kts 160°
2026-05-06 01:17 -23.42809 -46.47127 2461 ft 0 kts 160°
2026-05-06 01:17 -23.42825 -46.47122 2454 ft 5 kts 162°
2026-05-06 01:17 -23.42869 -46.47110 2454 ft 7 kts 173°
2026-05-06 01:18 -23.42917 -46.47128 2452 ft 8 kts 223°
2026-05-06 01:18 -23.42945 -46.47184 2459 ft 9 kts 249°
2026-05-06 01:18 -23.42969 -46.47258 2459 ft 11 kts 251°
2026-05-06 01:18 -23.42990 -46.47343 2454 ft 12 kts 256°
2026-05-06 01:19 -23.43013 -46.47440 2458 ft 14 kts 255°
2026-05-06 01:19 -23.43043 -46.47542 2456 ft 14 kts 251°
2026-05-06 01:19 -23.43073 -46.47651 2458 ft 16 kts 253°
2026-05-06 01:19 -23.43105 -46.47769 2456 ft 17 kts 254°
2026-05-06 01:20 -23.43137 -46.47895 2453 ft 18 kts 255°
2026-05-06 01:20 -23.43170 -46.48029 2462 ft 19 kts 255°
2026-05-06 01:20 -23.43200 -46.48153 2462 ft 16 kts 255°
2026-05-06 01:20 -23.43236 -46.48261 2462 ft 15 kts 248°
2026-05-06 01:21 -23.43261 -46.48330 2457 ft 6 kts 244°
2026-05-06 01:21 -23.43269 -46.48344 2455 ft 0 kts 237°
2026-05-06 01:21 -23.43272 -46.48348 2455 ft 1 kts 233°
2026-05-06 01:21 -23.43282 -46.48357 2455 ft 2 kts 214°
2026-05-06 01:22 -23.43285 -46.48358 2455 ft 1 kts 201°
2026-05-06 01:23 -23.43300 -46.48360 2454 ft 3 kts 186°
2026-05-06 01:23 -23.43331 -46.48357 2460 ft 6 kts 175°
2026-05-06 01:23 -23.43377 -46.48345 2459 ft 8 kts 166°
2026-05-06 01:23 -23.43424 -46.48307 2458 ft 7 kts 100°
2026-05-06 01:24 -23.43410 -46.48261 2460 ft 8 kts 73°
2026-05-06 01:24 -23.43348 -46.48046 2459 ft 67 kts 72°
2026-05-06 01:24 -23.43144 -46.47295 2455 ft 135 kts 73°
2026-05-06 01:24 -23.42832 -46.46159 2746 ft 158 kts 73°
2026-05-06 01:25 -23.42558 -46.45165 3832 ft 126 kts 73°
2026-05-06 01:25 -23.42298 -46.44224 4239 ft 148 kts 73°
2026-05-06 01:25 -23.42044 -46.43323 4774 ft 150 kts 72°
2026-05-06 01:25 -23.41780 -46.42404 5572 ft 141 kts 72°
2026-05-06 01:26 -23.41499 -46.41418 6179 ft 148 kts 72°
2026-05-06 01:26 -23.41187 -46.40330 6781 ft 152 kts 72°
2026-05-06 01:26 -23.40880 -46.39262 7492 ft 150 kts 72°
2026-05-06 01:26 -23.40565 -46.38170 8141 ft 154 kts 72°
2026-05-06 01:27 -23.40238 -46.37044 8752 ft 160 kts 72°
2026-05-06 01:27 -23.39765 -46.35754 8831 ft 201 kts 53°
2026-05-06 01:27 -23.38688 -46.34712 9341 ft 220 kts 32°
2026-05-06 01:27 -23.37290 -46.33842 9769 ft 243 kts 28°
2026-05-06 01:28 -23.35829 -46.32950 10163 ft 265 kts 30°
2026-05-06 01:28 -23.34209 -46.31854 10893 ft 272 kts 33°
2026-05-06 01:28 -23.32591 -46.30683 11439 ft 291 kts 34°
2026-05-06 01:28 -23.31025 -46.29513 11789 ft 313 kts 34°
2026-05-06 01:29 -23.29160 -46.28105 12180 ft 337 kts 34°
2026-05-06 01:29 -23.28785 -46.27821 12232 ft 342 kts 34°
2026-05-06 01:29 -23.27948 -46.27191 12444 ft 348 kts 34°
2026-05-06 01:30 -23.25908 -46.25653 13323 ft 354 kts 34°
2026-05-06 01:30 -23.24126 -46.24321 14111 ft 357 kts 33°
2026-05-06 01:30 -23.22052 -46.22787 14950 ft 362 kts 34°
2026-05-06 01:30 -23.19970 -46.21211 15805 ft 367 kts 34°
2026-05-06 01:31 -23.17867 -46.19620 16637 ft 372 kts 34°
2026-05-06 01:31 -23.15674 -46.17968 17470 ft 376 kts 34°
2026-05-06 01:31 -23.13547 -46.16369 18236 ft 381 kts 34°
2026-05-06 01:31 -23.11446 -46.14792 18983 ft 385 kts 34°
2026-05-06 01:32 -23.09212 -46.13116 19726 ft 389 kts 34°
2026-05-06 01:32 -23.06937 -46.11408 20457 ft 394 kts 34°
2026-05-06 01:32 -23.04671 -46.09709 21143 ft 398 kts 34°
2026-05-06 01:32 -23.02379 -46.07992 21805 ft 402 kts 34°
2026-05-06 01:33 -23.00063 -46.06257 22443 ft 407 kts 34°
2026-05-06 01:33 -22.97755 -46.04529 23012 ft 411 kts 34°
2026-05-06 01:33 -22.95350 -46.02728 23568 ft 416 kts 34°
2026-05-06 01:33 -22.92948 -46.00931 24130 ft 420 kts 34°
2026-05-06 01:34 -22.90580 -45.99160 24691 ft 423 kts 34°
2026-05-06 01:34 -22.88112 -45.97314 25166 ft 427 kts 34°
2026-05-06 01:34 -22.85675 -45.95482 25523 ft 433 kts 34°
2026-05-06 01:34 -22.83181 -45.93598 25944 ft 435 kts 34°
2026-05-06 01:35 -22.80702 -45.91726 26378 ft 437 kts 34°
2026-05-06 01:35 -22.78155 -45.89804 26764 ft 440 kts 34°
2026-05-06 01:35 -22.75669 -45.87931 27151 ft 442 kts 34°
2026-05-06 01:35 -22.73161 -45.86042 27420 ft 447 kts 34°
2026-05-06 01:36 -22.70588 -45.84107 27901 ft 446 kts 34°
2026-05-06 01:36 -22.68012 -45.82170 28250 ft 449 kts 34°
2026-05-06 01:36 -22.65527 -45.80302 28677 ft 449 kts 34°
2026-05-06 01:36 -22.62921 -45.78344 29027 ft 451 kts 34°
2026-05-06 01:37 -22.60340 -45.76405 29266 ft 455 kts 34°
2026-05-06 01:37 -22.57731 -45.74447 29634 ft 456 kts 34°
2026-05-06 01:37 -22.55100 -45.72473 29919 ft 458 kts 34°
2026-05-06 01:37 -22.52471 -45.70502 30189 ft 461 kts 34°
2026-05-06 01:38 -22.49847 -45.68535 30507 ft 463 kts 34°
2026-05-06 01:38 -22.47117 -45.66490 30842 ft 465 kts 34°
2026-05-06 01:38 -22.44633 -45.64631 31111 ft 466 kts 34°
2026-05-06 01:38 -22.41963 -45.62633 31451 ft 467 kts 34°
2026-05-06 01:39 -22.39478 -45.60773 31858 ft 465 kts 34°
2026-05-06 01:39 -22.36797 -45.58769 32190 ft 466 kts 34°
2026-05-06 01:39 -22.35038 -45.57453 32442 ft 465 kts 34°
2026-05-06 01:39 -22.31637 -45.54911 32929 ft 463 kts 34°
2026-05-06 01:40 -22.29004 -45.52946 33238 ft 463 kts 34°
2026-05-06 01:40 -22.26339 -45.50957 33556 ft 462 kts 34°
2026-05-06 01:40 -22.23699 -45.48987 33848 ft 462 kts 34°
2026-05-06 01:40 -22.21940 -45.47676 34076 ft 461 kts 34°
2026-05-06 01:41 -22.19292 -45.45702 34335 ft 462 kts 34°
2026-05-06 01:41 -22.16677 -45.43752 34589 ft 462 kts 34°
2026-05-06 01:41 -22.13963 -45.41732 34910 ft 460 kts 34°
2026-05-06 01:41 -22.11348 -45.39785 35126 ft 461 kts 34°
2026-05-06 01:42 -22.08725 -45.37833 35370 ft 461 kts 34°
2026-05-06 01:42 -22.06054 -45.35846 35582 ft 461 kts 34°
2026-05-06 01:42 -22.03424 -45.33860 35924 ft 458 kts 37°
2026-05-06 01:42 -22.00893 -45.31716 36195 ft 457 kts 38°
2026-05-06 01:43 -21.98416 -45.29607 36393 ft 457 kts 38°
2026-05-06 01:43 -21.95902 -45.27474 36604 ft 456 kts 38°
2026-05-06 01:43 -21.93428 -45.25382 36789 ft 456 kts 38°
2026-05-06 01:43 -21.90897 -45.23246 36948 ft 457 kts 38°
2026-05-06 01:44 -21.85898 -45.19034 36982 ft 455 kts 38°
2026-05-06 01:44 -21.80857 -45.14795 36988 ft 455 kts 38°
2026-05-06 01:45 -21.75859 -45.10591 37002 ft 455 kts 38°
2026-05-06 01:45 -21.70895 -45.06419 37009 ft 455 kts 38°
2026-05-06 01:46 -21.65914 -45.02236 37012 ft 455 kts 38°
2026-05-06 01:46 -21.60907 -44.98034 36992 ft 454 kts 38°
2026-05-06 01:47 -21.55927 -44.93859 36979 ft 454 kts 38°
2026-05-06 01:47 -21.50908 -44.89655 36985 ft 457 kts 38°
2026-05-06 01:48 -21.45885 -44.85451 36986 ft 457 kts 38°
2026-05-06 01:48 -21.40886 -44.81271 36983 ft 456 kts 38°
2026-05-06 01:49 -21.35850 -44.77065 36997 ft 456 kts 38°
2026-05-06 01:49 -21.30910 -44.72938 37014 ft 458 kts 38°
2026-05-06 01:50 -21.25874 -44.68735 37004 ft 455 kts 38°
2026-05-06 01:50 -21.21042 -44.64707 37001 ft 455 kts 38°
2026-05-06 01:51 -21.16227 -44.60695 37000 ft 456 kts 38°
2026-05-06 01:51 -21.11208 -44.56518 37000 ft 455 kts 38°
2026-05-06 01:52 -21.06213 -44.52364 36998 ft 455 kts 38°
2026-05-06 01:52 -21.01214 -44.48211 36997 ft 455 kts 38°
2026-05-06 01:53 -20.96214 -44.44061 36993 ft 455 kts 37°
2026-05-06 01:53 -20.91205 -44.39909 36990 ft 455 kts 37°
2026-05-06 01:54 -20.86203 -44.35768 36987 ft 455 kts 37°
2026-05-06 01:54 -20.81183 -44.31615 36984 ft 455 kts 37°
2026-05-06 01:55 -20.76173 -44.27473 36989 ft 455 kts 37°
2026-05-06 01:55 -20.71159 -44.23333 36990 ft 455 kts 37°
2026-05-06 01:56 -20.66139 -44.19191 36996 ft 456 kts 37°
2026-05-06 01:56 -20.61179 -44.15084 36999 ft 456 kts 38°
2026-05-06 01:57 -20.56159 -44.10834 37000 ft 457 kts 38°
2026-05-06 01:57 -20.51181 -44.06630 37004 ft 457 kts 38°
2026-05-06 01:58 -20.46099 -44.02426 37012 ft 457 kts 37°
2026-05-06 01:58 -20.41059 -43.98326 37002 ft 455 kts 37°
2026-05-06 01:59 -20.36017 -43.94210 37000 ft 457 kts 37°
2026-05-06 01:59 -20.30959 -43.90078 37000 ft 457 kts 37°
2026-05-06 02:00 -20.25906 -43.85952 37000 ft 457 kts 37°
2026-05-06 02:00 -20.20874 -43.81847 37004 ft 456 kts 37°
2026-05-06 02:01 -20.15837 -43.77741 37003 ft 455 kts 37°
2026-05-06 02:01 -20.10814 -43.73651 36990 ft 455 kts 37°
2026-05-06 02:02 -20.05767 -43.69544 36996 ft 457 kts 37°
2026-05-06 02:02 -20.00722 -43.65443 36996 ft 459 kts 37°
2026-05-06 02:03 -19.95671 -43.61339 37003 ft 456 kts 37°
2026-05-06 02:03 -19.90623 -43.57242 37003 ft 457 kts 37°
2026-05-06 02:04 -19.85566 -43.53134 37000 ft 456 kts 37°
2026-05-06 02:04 -19.81370 -43.49720 37006 ft 455 kts 37°
2026-05-06 02:05 -19.75524 -43.44968 36992 ft 454 kts 37°
2026-05-06 02:05 -19.71359 -43.41588 36992 ft 454 kts 37°
2026-05-06 02:06 -19.65537 -43.36865 37009 ft 454 kts 37°
2026-05-06 02:06 -19.61338 -43.33461 36982 ft 454 kts 37°
2026-05-06 02:07 -19.56332 -43.29404 37004 ft 455 kts 37°
2026-05-06 02:07 -19.51426 -43.25433 37008 ft 456 kts 37°
2026-05-06 02:08 -19.46415 -43.21379 37018 ft 453 kts 37°
2026-05-06 02:08 -19.41341 -43.17279 37017 ft 454 kts 37°
2026-05-06 02:09 -19.36320 -43.13224 37007 ft 455 kts 37°
2026-05-06 02:09 -19.31287 -43.09162 36995 ft 455 kts 37°
2026-05-06 02:10 -19.26258 -43.05108 36983 ft 454 kts 37°
2026-05-06 02:10 -19.21286 -43.01102 36986 ft 452 kts 37°
2026-05-06 02:11 -19.16261 -42.97056 37004 ft 451 kts 37°
2026-05-06 02:11 -19.11222 -42.93003 37007 ft 456 kts 37°
2026-05-06 02:12 -19.06221 -42.88983 37005 ft 454 kts 37°
2026-05-06 02:12 -19.01190 -42.84942 36997 ft 455 kts 37°
2026-05-06 02:13 -18.96149 -42.80897 36993 ft 454 kts 37°
2026-05-06 02:13 -18.91154 -42.76891 36990 ft 454 kts 37°
2026-05-06 02:14 -18.86085 -42.72831 36993 ft 454 kts 37°
2026-05-06 02:14 -18.81040 -42.68794 36995 ft 454 kts 37°
2026-05-06 02:15 -18.76010 -42.64772 36991 ft 454 kts 37°
2026-05-06 02:15 -18.71007 -42.60774 36997 ft 454 kts 37°
2026-05-06 02:16 -18.66019 -42.56792 36994 ft 455 kts 37°
2026-05-06 02:16 -18.61007 -42.52791 36996 ft 455 kts 37°
2026-05-06 02:17 -18.55993 -42.48792 37000 ft 455 kts 37°
2026-05-06 02:17 -18.50951 -42.44773 37005 ft 455 kts 37°
2026-05-06 02:18 -18.45936 -42.40781 37003 ft 453 kts 37°
2026-05-06 02:18 -18.40872 -42.36751 37003 ft 452 kts 37°
2026-05-06 02:19 -18.36034 -42.32904 37002 ft 452 kts 37°
2026-05-06 02:19 -18.31050 -42.28943 36997 ft 452 kts 37°
2026-05-06 02:20 -18.23540 -42.22984 37000 ft 456 kts 37°
2026-05-06 02:21 -18.18453 -42.18950 37000 ft 453 kts 37°
2026-05-06 02:21 -18.13451 -42.14988 36998 ft 451 kts 37°
2026-05-06 02:22 -18.08427 -42.11010 36998 ft 453 kts 37°
2026-05-06 02:22 -18.03409 -42.07041 37002 ft 452 kts 37°
2026-05-06 02:23 -17.98350 -42.03041 37003 ft 454 kts 37°
2026-05-06 02:23 -17.93350 -41.99092 37000 ft 452 kts 37°
2026-05-06 02:24 -17.88300 -41.95106 36999 ft 453 kts 37°
2026-05-06 02:24 -17.83244 -41.91117 37007 ft 455 kts 37°
2026-05-06 02:25 -17.78159 -41.87109 36999 ft 454 kts 37°
2026-05-06 02:25 -17.73166 -41.83177 36998 ft 455 kts 37°
2026-05-06 02:26 -17.68049 -41.79149 36997 ft 453 kts 37°
2026-05-06 02:26 -17.63110 -41.75265 37001 ft 452 kts 37°
2026-05-06 02:27 -17.58063 -41.71298 37003 ft 453 kts 37°
2026-05-06 02:27 -17.52991 -41.67315 37001 ft 455 kts 37°
2026-05-06 02:28 -17.47931 -41.63344 37005 ft 456 kts 37°
2026-05-06 02:28 -17.42856 -41.59363 37012 ft 456 kts 37°
2026-05-06 02:29 -17.37776 -41.55382 37007 ft 453 kts 37°
2026-05-06 02:29 -17.32724 -41.51425 37001 ft 454 kts 37°
2026-05-06 02:30 -17.27687 -41.47481 36997 ft 454 kts 37°
2026-05-06 02:30 -17.22673 -41.43558 36996 ft 454 kts 37°
2026-05-06 02:31 -17.17624 -41.39611 37004 ft 453 kts 37°
2026-05-06 02:31 -17.13209 -41.36162 36999 ft 453 kts 37°
2026-05-06 02:32 -17.08092 -41.32167 36992 ft 452 kts 37°
2026-05-06 02:32 -17.03053 -41.28236 36979 ft 452 kts 37°
2026-05-06 02:33 -16.97969 -41.24272 36988 ft 452 kts 36°
2026-05-06 02:33 -16.96323 -41.22989 36993 ft 454 kts 36°
2026-05-06 02:34 -16.87829 -41.16375 37011 ft 454 kts 36°
2026-05-06 02:34 -16.82764 -41.12434 37000 ft 454 kts 36°
2026-05-06 02:35 -16.77756 -41.08540 36996 ft 453 kts 36°
2026-05-06 02:35 -16.72670 -41.04589 36997 ft 452 kts 36°
2026-05-06 02:36 -16.67626 -41.00672 37010 ft 451 kts 36°
2026-05-06 02:36 -16.62602 -40.96773 37013 ft 452 kts 36°
2026-05-06 02:37 -16.57595 -40.92891 37015 ft 454 kts 36°
2026-05-06 02:37 -16.52501 -40.88945 37013 ft 454 kts 36°
2026-05-06 02:38 -16.47456 -40.85038 37023 ft 455 kts 36°
2026-05-06 02:38 -16.42368 -40.81100 37022 ft 453 kts 36°
2026-05-06 02:39 -16.37322 -40.77198 37019 ft 451 kts 36°
2026-05-06 02:39 -16.32247 -40.73275 37020 ft 451 kts 36°
2026-05-06 02:40 -16.27271 -40.69433 37018 ft 453 kts 36°
2026-05-06 02:40 -16.23025 -40.66155 36999 ft 450 kts 36°
2026-05-06 02:41 -16.17957 -40.62246 36985 ft 449 kts 36°
2026-05-06 02:41 -16.12914 -40.58358 37000 ft 451 kts 36°
2026-05-06 02:42 -16.07886 -40.54485 37001 ft 451 kts 36°
2026-05-06 02:42 -16.02609 -40.50422 37000 ft 452 kts 36°
2026-05-06 02:43 -15.97557 -40.46534 37000 ft 452 kts 36°
2026-05-06 02:43 -15.92532 -40.42671 37010 ft 454 kts 36°
2026-05-06 02:44 -15.87481 -40.38799 37000 ft 453 kts 36°
2026-05-06 02:44 -15.82386 -40.34894 37001 ft 451 kts 36°
2026-05-06 02:45 -15.77349 -40.31035 37000 ft 451 kts 36°
2026-05-06 02:45 -15.72297 -40.27167 37001 ft 451 kts 36°
2026-05-06 02:46 -15.67218 -40.23280 37003 ft 452 kts 36°
2026-05-06 02:46 -15.62252 -40.19484 37006 ft 452 kts 36°
2026-05-06 02:47 -15.57172 -40.15602 36999 ft 453 kts 36°
2026-05-06 02:47 -15.52027 -40.11678 37008 ft 453 kts 36°
2026-05-06 02:48 -15.46949 -40.07809 37002 ft 453 kts 36°
2026-05-06 02:48 -15.41921 -40.03981 36998 ft 450 kts 36°
2026-05-06 02:49 -15.36854 -40.00124 37000 ft 451 kts 36°
2026-05-06 02:49 -15.31761 -39.96250 37000 ft 450 kts 36°
2026-05-06 02:50 -15.26786 -39.92468 37000 ft 451 kts 36°
2026-05-06 02:50 -15.21711 -39.88612 37001 ft 451 kts 36°
2026-05-06 02:51 -15.16618 -39.84745 37002 ft 451 kts 36°
2026-05-06 02:51 -15.11557 -39.80905 37001 ft 451 kts 36°
2026-05-06 02:52 -15.06522 -39.77086 36998 ft 451 kts 36°
2026-05-06 02:52 -15.01453 -39.73245 36994 ft 451 kts 36°
2026-05-06 02:53 -14.96427 -39.69440 36990 ft 451 kts 36°
2026-05-06 02:53 -14.91330 -39.65605 36994 ft 450 kts 36°
2026-05-06 02:54 -14.86258 -39.61787 37001 ft 451 kts 36°
2026-05-06 02:54 -14.81189 -39.57973 36993 ft 451 kts 36°
2026-05-06 02:55 -14.76083 -39.54133 37003 ft 452 kts 36°
2026-05-06 02:55 -14.71004 -39.50315 36999 ft 452 kts 36°
2026-05-06 02:56 -14.65946 -39.46516 37000 ft 452 kts 36°
2026-05-06 02:56 -14.60856 -39.42694 37000 ft 450 kts 36°
2026-05-06 02:57 -14.55864 -39.38949 37001 ft 451 kts 36°
2026-05-06 02:57 -14.50775 -39.35134 37008 ft 451 kts 36°
2026-05-06 02:58 -14.45672 -39.31310 37008 ft 452 kts 36°
2026-05-06 02:58 -14.40599 -39.27510 37004 ft 452 kts 36°
2026-05-06 02:59 -14.35492 -39.23687 37015 ft 452 kts 36°
2026-05-06 02:59 -14.30442 -39.19908 37003 ft 450 kts 36°
2026-05-06 03:00 -14.25361 -39.16109 36997 ft 450 kts 36°
2026-05-06 03:00 -14.20270 -39.12305 36998 ft 450 kts 36°
2026-05-06 03:01 -14.15199 -39.08518 37004 ft 449 kts 36°
2026-05-06 03:01 -14.10140 -39.04742 37004 ft 449 kts 36°
2026-05-06 03:02 -14.05153 -39.01021 36998 ft 450 kts 36°
2026-05-06 03:02 -14.00943 -38.97882 36999 ft 449 kts 36°
2026-05-06 03:02 -13.97611 -38.95399 36802 ft 446 kts 36°
2026-05-06 03:03 -13.95876 -38.94106 36530 ft 444 kts 36°
2026-05-06 03:03 -13.93384 -38.92250 36082 ft 440 kts 36°
2026-05-06 03:03 -13.90894 -38.90395 35584 ft 436 kts 36°
2026-05-06 03:03 -13.88459 -38.88582 35061 ft 433 kts 36°
2026-05-06 03:04 -13.86016 -38.86763 34563 ft 429 kts 36°
2026-05-06 03:04 -13.83616 -38.84977 34066 ft 426 kts 36°
2026-05-06 03:04 -13.81203 -38.83182 33568 ft 423 kts 36°
2026-05-06 03:04 -13.78834 -38.81420 33073 ft 419 kts 36°
2026-05-06 03:05 -13.76482 -38.79671 32583 ft 416 kts 36°
2026-05-06 03:05 -13.74163 -38.77947 32099 ft 413 kts 36°
2026-05-06 03:05 -13.71829 -38.76212 31605 ft 409 kts 36°
2026-05-06 03:05 -13.69544 -38.74515 31126 ft 406 kts 36°
2026-05-06 03:06 -13.67308 -38.72854 30653 ft 403 kts 36°
2026-05-06 03:06 -13.65039 -38.71168 30172 ft 400 kts 36°
2026-05-06 03:06 -13.62795 -38.69502 29699 ft 397 kts 36°
2026-05-06 03:06 -13.60528 -38.67819 29206 ft 394 kts 36°
2026-05-06 03:07 -13.58326 -38.66185 28738 ft 391 kts 36°
2026-05-06 03:07 -13.56122 -38.64549 28262 ft 388 kts 36°
2026-05-06 03:07 -13.53952 -38.62940 27793 ft 385 kts 36°
2026-05-06 03:07 -13.53442 -38.62562 27686 ft 384 kts 36°
2026-05-06 03:08 -13.51947 -38.61453 27357 ft 382 kts 36°
2026-05-06 03:08 -13.49781 -38.59847 26890 ft 379 kts 36°
2026-05-06 03:08 -13.47655 -38.58271 26412 ft 377 kts 36°
2026-05-06 03:09 -13.45528 -38.56695 25962 ft 374 kts 36°
2026-05-06 03:09 -13.43429 -38.55139 25503 ft 371 kts 36°
2026-05-06 03:09 -13.41334 -38.53587 25042 ft 368 kts 36°
2026-05-06 03:09 -13.39259 -38.52051 24576 ft 366 kts 36°
2026-05-06 03:10 -13.37198 -38.50524 24130 ft 363 kts 36°
2026-05-06 03:10 -13.35150 -38.49008 23677 ft 361 kts 36°
2026-05-06 03:10 -13.33125 -38.47509 23226 ft 358 kts 36°
2026-05-06 03:10 -13.31121 -38.46026 22784 ft 356 kts 36°
2026-05-06 03:11 -13.29102 -38.44533 22342 ft 353 kts 36°
2026-05-06 03:11 -13.27112 -38.43061 21899 ft 351 kts 36°
2026-05-06 03:11 -13.25140 -38.41602 21462 ft 348 kts 36°
2026-05-06 03:11 -13.23196 -38.40165 21033 ft 346 kts 36°
2026-05-06 03:12 -13.21245 -38.38723 20603 ft 344 kts 36°
2026-05-06 03:12 -13.19304 -38.37288 20171 ft 341 kts 36°
2026-05-06 03:12 -13.17375 -38.35863 19739 ft 339 kts 36°
2026-05-06 03:12 -13.15496 -38.34474 19325 ft 337 kts 36°
2026-05-06 03:13 -13.13576 -38.33056 18902 ft 335 kts 35°
2026-05-06 03:13 -13.11693 -38.31665 18483 ft 333 kts 35°
2026-05-06 03:13 -13.09824 -38.30285 18066 ft 330 kts 35°
2026-05-06 03:13 -13.07957 -38.28906 17645 ft 328 kts 35°
2026-05-06 03:14 -13.06108 -38.27542 17221 ft 326 kts 35°
2026-05-06 03:14 -13.04280 -38.26194 16830 ft 324 kts 35°
2026-05-06 03:14 -13.02431 -38.24830 16409 ft 322 kts 35°
2026-05-06 03:14 -13.00628 -38.23501 16004 ft 320 kts 35°
2026-05-06 03:15 -12.98822 -38.22169 15597 ft 318 kts 35°
2026-05-06 03:15 -12.97058 -38.20868 15198 ft 316 kts 35°
2026-05-06 03:15 -12.95265 -38.19547 14794 ft 314 kts 35°
2026-05-06 03:15 -12.93472 -38.18225 14385 ft 312 kts 35°
2026-05-06 03:16 -12.91716 -38.16932 13985 ft 311 kts 35°
2026-05-06 03:16 -12.89967 -38.15643 13591 ft 309 kts 35°
2026-05-06 03:16 -12.88222 -38.14357 13187 ft 307 kts 35°
2026-05-06 03:16 -12.86496 -38.13086 12789 ft 305 kts 35°
2026-05-06 03:17 -12.84776 -38.11819 12384 ft 303 kts 35°
2026-05-06 03:17 -12.83075 -38.10568 11999 ft 302 kts 35°
2026-05-06 03:17 -12.81370 -38.09313 11600 ft 300 kts 35°
2026-05-06 03:17 -12.79700 -38.08083 11213 ft 298 kts 35°
2026-05-06 03:18 -12.77997 -38.06830 10813 ft 296 kts 35°
2026-05-06 03:18 -12.76353 -38.05620 10435 ft 295 kts 35°
2026-05-06 03:18 -12.74689 -38.04396 10034 ft 293 kts 35°
2026-05-06 03:18 -12.73035 -38.03181 9643 ft 291 kts 35°
2026-05-06 03:19 -12.71400 -38.01978 9246 ft 289 kts 35°
2026-05-06 03:19 -12.69792 -38.00796 9059 ft 286 kts 35°
2026-05-06 03:19 -12.68161 -37.99597 8998 ft 289 kts 35°
2026-05-06 03:19 -12.66529 -37.98398 9000 ft 289 kts 35°
2026-05-06 03:20 -12.63261 -37.95996 9000 ft 289 kts 35°
2026-05-06 03:20 -12.61627 -37.94796 9000 ft 289 kts 35°
2026-05-06 03:20 -12.59992 -37.93595 9000 ft 289 kts 35°
2026-05-06 03:21 -12.58368 -37.92402 9001 ft 289 kts 35°
2026-05-06 03:21 -12.56737 -37.91205 9000 ft 289 kts 35°
2026-05-06 03:21 -12.55106 -37.90007 9000 ft 289 kts 35°
2026-05-06 03:21 -12.53533 -37.88853 9000 ft 289 kts 35°
2026-05-06 03:22 -12.51894 -37.87650 9000 ft 289 kts 35°
2026-05-06 03:22 -12.50258 -37.86449 9000 ft 289 kts 35°
2026-05-06 03:22 -12.48628 -37.85253 8995 ft 289 kts 35°
2026-05-06 03:22 -12.47000 -37.84059 8826 ft 287 kts 35°
2026-05-06 03:23 -12.45385 -37.82874 8506 ft 286 kts 35°
2026-05-06 03:23 -12.43767 -37.81688 8132 ft 285 kts 35°
2026-05-06 03:23 -12.42180 -37.80524 7752 ft 283 kts 35°
2026-05-06 03:23 -12.40579 -37.79350 7370 ft 282 kts 35°
2026-05-06 03:24 -12.38990 -37.78186 6983 ft 280 kts 35°
2026-05-06 03:24 -12.37413 -37.77029 6609 ft 279 kts 35°
2026-05-06 03:24 -12.35840 -37.75877 6244 ft 277 kts 35°
2026-05-06 03:24 -12.34267 -37.74725 5865 ft 276 kts 35°
2026-05-06 03:25 -12.32700 -37.73576 5484 ft 274 kts 35°
2026-05-06 03:25 -12.31174 -37.72459 5116 ft 273 kts 35°
2026-05-06 03:25 -12.29637 -37.71333 4747 ft 271 kts 35°
2026-05-06 03:25 -12.28103 -37.70210 4372 ft 270 kts 35°
2026-05-06 03:26 -12.26582 -37.69096 4090 ft 266 kts 35°
2026-05-06 03:26 -12.25067 -37.67987 3995 ft 270 kts 35°
2026-05-06 03:26 -12.23547 -37.66875 4003 ft 269 kts 35°
2026-05-06 03:26 -12.22033 -37.65767 4000 ft 269 kts 35°
2026-05-06 03:27 -12.20508 -37.64651 3996 ft 269 kts 35°
2026-05-06 03:27 -12.18989 -37.63540 4005 ft 269 kts 35°
2026-05-06 03:27 -12.17462 -37.62423 3994 ft 269 kts 35°
2026-05-06 03:27 -12.15960 -37.61324 4006 ft 269 kts 35°
2026-05-06 03:28 -12.14420 -37.60198 4004 ft 269 kts 35°
2026-05-06 03:28 -12.12897 -37.59085 3998 ft 269 kts 35°
2026-05-06 03:28 -12.11394 -37.57985 4001 ft 269 kts 35°
2026-05-06 03:28 -12.09869 -37.56871 3997 ft 269 kts 35°
2026-05-06 03:29 -12.08330 -37.55746 4001 ft 269 kts 35°
2026-05-06 03:29 -12.06831 -37.54651 3998 ft 269 kts 35°
2026-05-06 03:29 -12.05312 -37.53541 4005 ft 269 kts 35°
2026-05-06 03:29 -12.03785 -37.52425 4002 ft 269 kts 35°
2026-05-06 03:30 -12.02264 -37.51314 4000 ft 269 kts 35°
2026-05-06 03:30 -12.00747 -37.50206 3996 ft 269 kts 35°
2026-05-06 03:30 -11.99221 -37.49092 3999 ft 269 kts 35°
2026-05-06 03:30 -11.97697 -37.47979 4001 ft 269 kts 35°
2026-05-06 03:31 -11.96200 -37.46886 3996 ft 269 kts 35°
2026-05-06 03:31 -11.94657 -37.45760 3999 ft 269 kts 35°
2026-05-06 03:31 -11.93127 -37.44643 4004 ft 269 kts 35°
2026-05-06 03:31 -11.91581 -37.43630 4001 ft 269 kts 29°
2026-05-06 03:32 -11.89954 -37.42682 3999 ft 269 kts 29°
2026-05-06 03:32 -11.88326 -37.41724 4001 ft 269 kts 30°
2026-05-06 03:32 -11.86711 -37.40770 4004 ft 269 kts 30°
2026-05-06 03:32 -11.85088 -37.39812 3996 ft 269 kts 30°
2026-05-06 03:33 -11.83468 -37.38855 4003 ft 269 kts 30°
2026-05-06 03:33 -11.81889 -37.37922 4002 ft 269 kts 30°
2026-05-06 03:33 -11.80278 -37.36971 3998 ft 269 kts 30°
2026-05-06 03:33 -11.78660 -37.36017 4000 ft 269 kts 30°
2026-05-06 03:34 -11.77047 -37.35065 3997 ft 269 kts 30°
2026-05-06 03:34 -11.75418 -37.34104 4004 ft 269 kts 30°
2026-05-06 03:34 -11.73800 -37.33150 3999 ft 269 kts 30°
2026-05-06 03:34 -11.72180 -37.32194 4004 ft 269 kts 30°
2026-05-06 03:35 -11.70568 -37.31244 3999 ft 269 kts 30°
2026-05-06 03:35 -11.68942 -37.30286 4000 ft 269 kts 30°
2026-05-06 03:35 -11.67326 -37.29333 4008 ft 269 kts 30°
2026-05-06 03:35 -11.65712 -37.28382 4008 ft 269 kts 30°
2026-05-06 03:36 -11.64094 -37.27428 4003 ft 269 kts 30°
2026-05-06 03:36 -11.62477 -37.26476 3998 ft 269 kts 30°
2026-05-06 03:36 -11.61407 -37.25845 3995 ft 269 kts 30°
2026-05-06 03:36 -11.59262 -37.24582 4000 ft 269 kts 30°
2026-05-06 03:37 -11.57641 -37.23627 4005 ft 269 kts 30°
2026-05-06 03:37 -11.56022 -37.22674 4004 ft 269 kts 30°
2026-05-06 03:37 -11.54403 -37.21721 3995 ft 269 kts 30°
2026-05-06 03:37 -11.52784 -37.20768 3997 ft 269 kts 30°
2026-05-06 03:38 -11.51713 -37.20138 3998 ft 269 kts 30°
2026-05-06 03:38 -11.50092 -37.19184 4000 ft 269 kts 30°
2026-05-06 03:38 -11.48473 -37.18231 3997 ft 269 kts 30°
2026-05-06 03:38 -11.46851 -37.17276 3997 ft 269 kts 30°
2026-05-06 03:39 -11.45231 -37.16324 4002 ft 269 kts 30°
2026-05-06 03:39 -11.43617 -37.15374 3996 ft 269 kts 30°
2026-05-06 03:39 -11.41997 -37.14421 3999 ft 269 kts 30°
2026-05-06 03:39 -11.40439 -37.13505 4005 ft 269 kts 30°
2026-05-06 03:40 -11.38824 -37.12556 4002 ft 269 kts 30°
2026-05-06 03:40 -11.37240 -37.11624 4002 ft 269 kts 30°
2026-05-06 03:40 -11.35616 -37.10670 3998 ft 269 kts 30°
2026-05-06 03:40 -11.34017 -37.09730 4001 ft 269 kts 30°
2026-05-06 03:41 -11.32406 -37.08783 3997 ft 269 kts 30°
2026-05-06 03:41 -11.30794 -37.07835 3999 ft 269 kts 30°
2026-05-06 03:41 -11.29175 -37.06884 4006 ft 269 kts 30°
2026-05-06 03:41 -11.27548 -37.05928 4003 ft 269 kts 30°
2026-05-06 03:42 -11.25928 -37.04976 4002 ft 269 kts 30°
2026-05-06 03:42 -11.24307 -37.04024 4006 ft 269 kts 30°
2026-05-06 03:42 -11.22691 -37.03075 3998 ft 269 kts 30°
2026-05-06 03:42 -11.21065 -37.02121 3997 ft 269 kts 30°
2026-05-06 03:43 -11.19447 -37.01171 4003 ft 269 kts 30°
2026-05-06 03:43 -11.17827 -37.00220 4007 ft 269 kts 30°
2026-05-06 03:43 -11.16228 -36.99281 3997 ft 269 kts 30°
2026-05-06 03:43 -11.14609 -36.98332 3998 ft 269 kts 30°
2026-05-06 03:44 -11.12990 -36.97381 4001 ft 269 kts 30°
2026-05-06 03:44 -11.11368 -36.96430 4005 ft 269 kts 30°
2026-05-06 03:44 -11.09747 -36.95479 3995 ft 269 kts 30°
2026-05-06 03:44 -11.08126 -36.94528 4002 ft 269 kts 30°
2026-05-06 03:45 -11.06504 -36.93577 4000 ft 269 kts 30°
2026-05-06 03:45 -11.04882 -36.92626 3997 ft 269 kts 30°
2026-05-06 03:45 -11.03273 -36.91682 3997 ft 269 kts 30°
2026-05-06 03:45 -11.01648 -36.90730 3996 ft 269 kts 30°
2026-05-06 03:46 -11.00022 -36.89776 3999 ft 269 kts 30°
2026-05-06 03:46 -10.98401 -36.88827 3997 ft 269 kts 30°
2026-05-06 03:46 -10.96806 -36.87892 3998 ft 269 kts 30°
2026-05-06 03:46 -10.95162 -36.86929 3999 ft 269 kts 30°
2026-05-06 03:47 -10.93540 -36.85978 4004 ft 269 kts 30°
2026-05-06 03:47 -10.91924 -36.85032 3998 ft 269 kts 30°
2026-05-06 03:47 -10.90307 -36.84085 3993 ft 269 kts 30°
2026-05-06 03:47 -10.88687 -36.83136 4006 ft 269 kts 30°
2026-05-06 03:48 -10.87065 -36.82187 3993 ft 269 kts 30°
2026-05-06 03:48 -10.85434 -36.81232 4003 ft 269 kts 30°
2026-05-06 03:48 -10.83817 -36.80285 3999 ft 269 kts 30°
2026-05-06 03:48 -10.82197 -36.79337 3997 ft 269 kts 30°
2026-05-06 03:49 -10.80578 -36.78389 4007 ft 269 kts 30°
2026-05-06 03:49 -10.78957 -36.77440 3999 ft 269 kts 30°
2026-05-06 03:49 -10.77358 -36.76505 4003 ft 269 kts 30°
2026-05-06 03:49 -10.75737 -36.75556 3997 ft 269 kts 30°
2026-05-06 03:50 -10.74120 -36.74611 4003 ft 269 kts 30°
2026-05-06 03:50 -10.72477 -36.73650 4004 ft 269 kts 30°
2026-05-06 03:50 -10.70881 -36.72716 4002 ft 269 kts 30°
2026-05-06 03:50 -10.69258 -36.71767 4002 ft 269 kts 30°
2026-05-06 03:51 -10.67633 -36.70817 3999 ft 269 kts 30°
2026-05-06 03:51 -10.66029 -36.69879 4002 ft 269 kts 30°
2026-05-06 03:51 -10.64410 -36.68933 4005 ft 269 kts 30°
2026-05-06 03:51 -10.62785 -36.67983 4003 ft 269 kts 30°
2026-05-06 03:52 -10.61168 -36.67037 4001 ft 268 kts 30°
2026-05-06 03:52 -10.59543 -36.66086 4002 ft 269 kts 29°
2026-05-06 03:52 -10.57918 -36.65140 4000 ft 268 kts 29°
2026-05-06 03:52 -10.56298 -36.64196 4001 ft 268 kts 30°
2026-05-06 03:53 -10.54681 -36.63251 4005 ft 269 kts 30°
2026-05-06 03:53 -10.53057 -36.62303 3998 ft 269 kts 29°
2026-05-06 03:53 -10.51440 -36.61362 4003 ft 268 kts 29°
2026-05-06 03:53 -10.49825 -36.60417 3995 ft 269 kts 30°
2026-05-06 03:54 -10.48199 -36.59465 3994 ft 268 kts 30°
2026-05-06 03:54 -10.46600 -36.58528 3997 ft 269 kts 30°
2026-05-06 03:54 -10.44954 -36.57568 3995 ft 269 kts 29°
2026-05-06 03:54 -10.43344 -36.56629 3997 ft 269 kts 30°
2026-05-06 03:55 -10.41737 -36.55691 3997 ft 269 kts 29°
2026-05-06 03:55 -10.40094 -36.54734 4007 ft 269 kts 29°
2026-05-06 03:55 -10.38494 -36.53801 4002 ft 268 kts 29°
2026-05-06 03:55 -10.36853 -36.52845 4003 ft 269 kts 29°
2026-05-06 03:56 -10.35250 -36.51908 4001 ft 269 kts 30°
2026-05-06 03:56 -10.33620 -36.50956 3997 ft 269 kts 29°
2026-05-06 03:56 -10.32014 -36.50020 4005 ft 269 kts 29°
2026-05-06 03:56 -10.30410 -36.49086 3998 ft 269 kts 29°
2026-05-06 03:57 -10.28785 -36.48136 4001 ft 269 kts 30°
2026-05-06 03:57 -10.27163 -36.47190 4002 ft 269 kts 29°
2026-05-06 03:57 -10.25559 -36.46256 3993 ft 269 kts 29°
2026-05-06 03:57 -10.23934 -36.45310 3998 ft 269 kts 29°
2026-05-06 03:58 -10.22315 -36.44367 3999 ft 269 kts 30°
2026-05-06 03:58 -10.20695 -36.43421 3993 ft 268 kts 29°
2026-05-06 03:58 -10.19070 -36.42475 3996 ft 269 kts 29°
2026-05-06 03:58 -10.17445 -36.41528 4002 ft 269 kts 29°
2026-05-06 03:59 -10.15821 -36.40582 3996 ft 269 kts 30°
2026-05-06 03:59 -10.14206 -36.39640 3996 ft 269 kts 29°
2026-05-06 03:59 -10.12574 -36.38691 4000 ft 269 kts 29°
2026-05-06 03:59 -10.10966 -36.37756 3999 ft 269 kts 29°
2026-05-06 04:00 -10.09357 -36.36820 3998 ft 269 kts 29°
2026-05-06 04:00 -10.07727 -36.35875 3998 ft 269 kts 29°
2026-05-06 04:00 -10.06100 -36.34930 3998 ft 269 kts 29°
2026-05-06 04:00 -10.04479 -36.33986 3997 ft 269 kts 29°
2026-05-06 04:01 -10.02871 -36.33052 4004 ft 269 kts 30°
2026-05-06 04:01 -10.01254 -36.32109 4002 ft 269 kts 30°
2026-05-06 04:01 -9.99610 -36.31151 3996 ft 269 kts 29°
2026-05-06 04:01 -9.98005 -36.30217 4000 ft 269 kts 29°
2026-05-06 04:02 -9.96379 -36.29271 3999 ft 269 kts 29°
2026-05-06 04:02 -9.94758 -36.28328 4003 ft 269 kts 29°
2026-05-06 04:02 -9.93139 -36.27386 3998 ft 269 kts 29°
2026-05-06 04:02 -9.91513 -36.26441 3994 ft 269 kts 29°
2026-05-06 04:03 -9.89884 -36.25493 4000 ft 269 kts 29°
2026-05-06 04:03 -9.88260 -36.24549 4003 ft 269 kts 29°
2026-05-06 04:03 -9.86637 -36.23606 4004 ft 269 kts 29°
2026-05-06 04:03 -9.85011 -36.22660 4004 ft 269 kts 29°
2026-05-06 04:04 -9.83391 -36.21719 4006 ft 269 kts 29°
2026-05-06 04:04 -9.81764 -36.20775 4001 ft 269 kts 29°
2026-05-06 04:04 -9.80140 -36.19831 3992 ft 269 kts 29°
2026-05-06 04:04 -9.78514 -36.18886 3996 ft 269 kts 29°
2026-05-06 04:05 -9.76892 -36.17944 3995 ft 269 kts 29°
2026-05-06 04:05 -9.75269 -36.17002 3996 ft 269 kts 29°
2026-05-06 04:05 -9.73644 -36.16058 4005 ft 269 kts 29°
2026-05-06 04:05 -9.72023 -36.15117 4008 ft 269 kts 29°
2026-05-06 04:06 -9.70392 -36.14170 3999 ft 268 kts 29°
2026-05-06 04:06 -9.68795 -36.13243 3993 ft 269 kts 29°
2026-05-06 04:06 -9.67176 -36.12304 4003 ft 269 kts 29°
2026-05-06 04:06 -9.65581 -36.11379 3999 ft 269 kts 29°
2026-05-06 04:07 -9.63949 -36.10433 4004 ft 269 kts 29°
2026-05-06 04:07 -9.62307 -36.09483 4008 ft 269 kts 29°
2026-05-06 04:07 -9.60702 -36.08551 4000 ft 269 kts 29°
2026-05-06 04:07 -9.59079 -36.07611 3995 ft 269 kts 29°
2026-05-06 04:08 -9.57449 -36.06666 3994 ft 269 kts 29°
2026-05-06 04:08 -9.55833 -36.05726 3995 ft 269 kts 30°
2026-05-06 04:08 -9.54212 -36.04784 4003 ft 268 kts 29°
2026-05-06 04:08 -9.52584 -36.03840 3998 ft 269 kts 29°
2026-05-06 04:09 -9.50956 -36.02896 4006 ft 269 kts 29°
2026-05-06 04:09 -9.49339 -36.01958 4007 ft 269 kts 29°
2026-05-06 04:09 -9.47715 -36.01016 4002 ft 269 kts 29°
2026-05-06 04:09 -9.46090 -36.00072 3995 ft 269 kts 29°
2026-05-06 04:10 -9.44463 -35.99129 4000 ft 269 kts 29°
2026-05-06 04:10 -9.42854 -35.98198 3998 ft 269 kts 29°
2026-05-06 04:10 -9.41229 -35.97258 3994 ft 269 kts 29°
2026-05-06 04:10 -9.39601 -35.96317 3996 ft 269 kts 29°
2026-05-06 04:11 -9.37980 -35.95378 3996 ft 268 kts 29°
2026-05-06 04:11 -9.36355 -35.94437 4001 ft 269 kts 29°
2026-05-06 04:11 -9.34728 -35.93494 3997 ft 269 kts 29°
2026-05-06 04:11 -9.33102 -35.92551 4000 ft 269 kts 29°
2026-05-06 04:12 -9.31477 -35.91611 3998 ft 269 kts 29°
2026-05-06 04:12 -9.29860 -35.90675 4001 ft 269 kts 29°
2026-05-06 04:12 -9.28231 -35.89730 3997 ft 269 kts 29°
2026-05-06 04:12 -9.26611 -35.88795 3998 ft 269 kts 29°
2026-05-06 04:13 -9.24967 -35.87849 4004 ft 269 kts 29°
2026-05-06 04:13 -9.23346 -35.86910 3998 ft 271 kts 30°
2026-05-06 04:13 -9.21736 -35.85973 3997 ft 270 kts 29°
2026-05-06 04:13 -9.20108 -35.85031 4003 ft 269 kts 29°
2026-05-06 04:14 -9.18469 -35.84083 4007 ft 270 kts 29°
2026-05-06 04:14 -9.16840 -35.83140 4001 ft 269 kts 29°
2026-05-06 04:14 -9.15218 -35.82202 4010 ft 269 kts 29°
2026-05-06 04:14 -9.13591 -35.81261 3998 ft 269 kts 29°
2026-05-06 04:15 -9.11970 -35.80324 3998 ft 269 kts 29°
2026-05-06 04:15 -9.10340 -35.79382 4000 ft 269 kts 29°
2026-05-06 04:15 -9.08720 -35.78443 3992 ft 269 kts 29°
2026-05-06 04:15 -9.07080 -35.77495 4009 ft 270 kts 29°
2026-05-06 04:16 -9.05452 -35.76553 3996 ft 269 kts 29°
2026-05-06 04:16 -9.03832 -35.75616 3996 ft 269 kts 29°
2026-05-06 04:16 -9.02208 -35.74656 4000 ft 269 kts 33°
2026-05-06 04:16 -9.00755 -35.73451 4000 ft 270 kts 44°
2026-05-06 04:17 -8.99400 -35.72130 3992 ft 270 kts 43°
2026-05-06 04:17 -8.98039 -35.70822 4010 ft 270 kts 43°
2026-05-06 04:17 -8.96670 -35.69514 4004 ft 270 kts 43°
2026-05-06 04:17 -8.95306 -35.68213 4002 ft 269 kts 43°
2026-05-06 04:18 -8.94400 -35.67350 3993 ft 270 kts 43°
2026-05-06 04:18 -8.92593 -35.65630 4007 ft 270 kts 43°
2026-05-06 04:18 -8.91671 -35.64751 4003 ft 269 kts 43°
2026-05-06 04:18 -8.89874 -35.63039 4000 ft 270 kts 43°
2026-05-06 04:19 -8.88499 -35.61729 3998 ft 269 kts 43°
2026-05-06 04:19 -8.87580 -35.60854 3998 ft 270 kts 43°
2026-05-06 04:19 -8.86209 -35.59549 4002 ft 269 kts 43°
2026-05-06 04:19 -8.84862 -35.58266 4005 ft 269 kts 43°
2026-05-06 04:20 -8.83496 -35.56963 4002 ft 269 kts 43°
2026-05-06 04:20 -8.82135 -35.55666 4007 ft 269 kts 43°
2026-05-06 04:20 -8.80764 -35.54359 3993 ft 269 kts 43°
2026-05-06 04:20 -8.79401 -35.53061 4002 ft 270 kts 43°
2026-05-06 04:21 -8.78060 -35.51783 3992 ft 269 kts 43°
2026-05-06 04:21 -8.76693 -35.50480 3992 ft 270 kts 43°
2026-05-06 04:21 -8.75323 -35.49174 3996 ft 269 kts 43°
2026-05-06 04:21 -8.73954 -35.47873 4005 ft 269 kts 43°
2026-05-06 04:22 -8.72593 -35.46579 3993 ft 269 kts 43°
2026-05-06 04:22 -8.71230 -35.45283 3998 ft 269 kts 43°
2026-05-06 04:22 -8.69857 -35.43976 3997 ft 269 kts 43°
2026-05-06 04:23 -8.67161 -35.41408 3999 ft 269 kts 43°
2026-05-06 04:23 -8.65792 -35.40106 4005 ft 270 kts 43°
2026-05-06 04:23 -8.64427 -35.38812 3995 ft 269 kts 43°
2026-05-06 04:23 -8.63047 -35.37505 3998 ft 269 kts 43°
2026-05-06 04:24 -8.61694 -35.36225 4001 ft 269 kts 43°
2026-05-06 04:24 -8.60332 -35.34935 4001 ft 269 kts 43°
2026-05-06 04:24 -8.58977 -35.33649 4002 ft 269 kts 43°
2026-05-06 04:24 -8.57599 -35.32342 4003 ft 269 kts 43°
2026-05-06 04:25 -8.56236 -35.31049 4008 ft 270 kts 43°
2026-05-06 04:25 -8.54866 -35.29748 3994 ft 269 kts 43°
2026-05-06 04:25 -8.53507 -35.28458 3993 ft 270 kts 43°
2026-05-06 04:25 -8.52137 -35.27159 3994 ft 269 kts 43°
2026-05-06 04:26 -8.50764 -35.25859 3994 ft 270 kts 43°
2026-05-06 04:26 -8.49411 -35.24577 3997 ft 269 kts 43°
2026-05-06 04:26 -8.48030 -35.23269 4010 ft 270 kts 43°
2026-05-06 04:26 -8.46681 -35.21991 4007 ft 269 kts 43°
2026-05-06 04:27 -8.45306 -35.20687 3993 ft 270 kts 43°
2026-05-06 04:27 -8.43928 -35.19381 4002 ft 269 kts 43°
2026-05-06 04:27 -8.42563 -35.18087 4005 ft 269 kts 43°
2026-05-06 04:27 -8.41224 -35.16819 3998 ft 270 kts 43°
2026-05-06 04:28 -8.39848 -35.15516 3998 ft 269 kts 43°
2026-05-06 04:28 -8.38461 -35.14205 3997 ft 270 kts 43°
2026-05-06 04:28 -8.37091 -35.12912 3996 ft 269 kts 43°
2026-05-06 04:28 -8.35746 -35.11641 4000 ft 269 kts 43°
2026-05-06 04:29 -8.34372 -35.10343 4007 ft 269 kts 43°
2026-05-06 04:29 -8.33007 -35.09052 4002 ft 269 kts 43°
2026-05-06 04:29 -8.31677 -35.07793 3998 ft 269 kts 43°
2026-05-06 04:29 -8.30304 -35.06494 3995 ft 269 kts 43°
2026-05-06 04:30 -8.28946 -35.05222 3991 ft 269 kts 39°
2026-05-06 04:30 -8.27344 -35.04219 3997 ft 268 kts 22°
2026-05-06 04:30 -8.25552 -35.03708 3999 ft 268 kts 12°
2026-05-06 04:30 -8.23720 -35.03297 4007 ft 268 kts 12°
2026-05-06 04:31 -8.21900 -35.02875 3999 ft 268 kts 12°
2026-05-06 04:31 -8.20080 -35.02445 4000 ft 268 kts 13°
2026-05-06 04:31 -8.18258 -35.02033 4003 ft 268 kts
2026-05-06 04:31 -8.16412 -35.02025 3998 ft 267 kts 350°
2026-05-06 04:32 -8.14647 -35.02517 4002 ft 268 kts 341°
2026-05-06 04:32 -8.12858 -35.03096 4005 ft 267 kts 342°
2026-05-06 04:32 -8.11085 -35.03658 4001 ft 267 kts 342°
2026-05-06 04:32 -8.09315 -35.04212 4002 ft 267 kts 342°
2026-05-06 04:33 -8.07534 -35.04767 3988 ft 266 kts 342°
2026-05-06 04:33 -8.05774 -35.05315 3762 ft 265 kts 342°
2026-05-06 04:33 -8.04035 -35.05858 3312 ft 258 kts 342°
2026-05-06 04:33 -8.02306 -35.06383 3042 ft 265 kts 347°
2026-05-06 04:34 -8.00492 -35.06369 2849 ft 263 kts 15°
2026-05-06 04:34 -7.98908 -35.05500 2702 ft 267 kts 44°
2026-05-06 04:34 -7.97909 -35.03898 2905 ft 267 kts 72°
2026-05-06 04:34 -7.97644 -35.02075 2938 ft 267 kts 88°
2026-05-06 04:35 -7.97606 -35.00199 2957 ft 266 kts 91°
2026-05-06 04:35 -7.98016 -34.98396 2942 ft 266 kts 117°
2026-05-06 04:35 -7.99177 -34.96970 2944 ft 264 kts 144°
2026-05-06 04:35 -8.00814 -34.96189 2673 ft 259 kts 162°
2026-05-06 04:36 -8.02528 -34.95643 2113 ft 259 kts 163°
2026-05-06 04:36 -8.04227 -34.95098 1733 ft 258 kts 163°
2026-05-06 04:36 -8.05953 -34.94539 1648 ft 259 kts 162°
2026-05-06 04:36 -8.07643 -34.93978 1468 ft 251 kts 162°
2026-05-06 04:37 -8.09243 -34.93465 718 ft 246 kts 158°
2026-05-06 04:37 -8.10829 -34.92894 40 ft 236 kts 165°
2026-05-06 04:37 -8.11438 -34.92765 31 ft 57 kts 129°
2026-05-06 04:37 -8.11932 -34.92456 33 ft 121 kts 173°
2026-05-06 04:38 -8.12537 -34.92368 37 ft 39 kts 166°
2026-05-06 04:38 -8.12589 -34.92356 38 ft 0 kts 167°
2026-05-06 04:39 -8.12596 -34.92353 38 ft 4 kts 157°
2026-05-06 04:39 -8.12658 -34.92323 39 ft 15 kts 155°
2026-05-06 04:39 -8.12778 -34.92269 40 ft 23 kts 158°
2026-05-06 04:40 -8.12953 -34.92210 38 ft 30 kts 162°
2026-05-06 04:40 -8.13158 -34.92140 38 ft 30 kts 160°
2026-05-06 04:40 -8.13232 -34.92090 37 ft 2 kts 132°
2026-05-06 04:40 -8.13250 -34.92069 37 ft 6 kts 130°
2026-05-06 04:41 -8.13284 -34.92028 37 ft 9 kts 129°
2026-05-06 04:41 -8.13306 -34.91965 38 ft 10 kts 86°
2026-05-06 04:41 -8.13288 -34.91913 36 ft 0 kts 72°
2026-05-06 04:41 -8.13288 -34.91912 37 ft 1 kts 72°
2026-05-06 04:42 -8.13282 -34.91889 39 ft 6 kts 75°
2026-05-06 04:42 -8.13276 -34.91868 36 ft 0 kts 74°
2026-05-06 04:42 -8.13276 -34.91869 36 ft 0 kts 74°
2026-05-06 04:43 -8.13277 -34.91870 36 ft 0 kts 74°
2026-05-06 04:48 -8.13279 -34.91877 39 ft 5 kts 74°
2026-05-06 04:49 -8.13306 -34.91934 38 ft 11 kts
2026-05-06 04:49 -8.13322 -34.91933 37 ft 0 kts 341°
2026-05-06 04:49 -8.13311 -34.91940 34 ft 6 kts 322°
2026-05-06 04:49 -8.13241 -34.91973 36 ft 17 kts 343°
2026-05-06 04:50 -8.13107 -34.92015 38 ft 15 kts 342°
2026-05-06 04:50 -8.13045 -34.92038 38 ft 0 kts 341°
2026-05-06 04:50 -8.13024 -34.92026 38 ft 6 kts 65°
2026-05-06 04:50 -8.13015 -34.91995 38 ft 1 kts 78°
2026-05-06 04:51 -8.13011 -34.91978 38 ft 7 kts 75°
2026-05-06 04:51 -8.13006 -34.91961 38 ft 0 kts 75°